Time,TemperatureF,DewpointF,PressureIn,WindDirection,WindDirectionDegrees,WindSpeedMPH,WindSpeedGustMPH,Humidity,HourlyPrecipIn,Conditions,Clouds,dailyrainin,SoftwareType,DateUTC
2013-06-15 00:00:00,63.5,56.9,29.80,NNE,27,0.0,0.0,79,0.00,,SCT250,0.00,VWS V14.01,2013-06-15 04:00:00,
2013-06-15 00:01:00,63.5,57.2,29.80,NNE,29,1.0,3.0,80,0.00,,SCT250,0.00,VWS V14.01,2013-06-15 04:01:00,
2013-06-15 00:06:00,63.5,57.2,29.81,NNE,30,0.0,3.0,80,0.00,,SCT250,0.00,VWS V14.01,2013-06-15 04:06:00,
2013-06-15 00:11:00,63.5,57.2,29.81,NNE,29,0.0,3.0,80,0.00,,SCT250,0.00,VWS V14.01,2013-06-15 04:11:00,
2013-06-15 00:16:00,63.4,57.1,29.81,NNE,29,0.0,0.0,80,0.00,,SCT250,0.00,VWS V14.01,2013-06-15 04:16:00,
2013-06-15 00:21:00,63.2,57.4,29.81,NNE,29,0.0,0.0,81,0.00,,SCT250,0.00,VWS V14.01,2013-06-15 04:21:00,
2013-06-15 00:26:00,63.1,57.2,29.81,NNE,30,0.0,4.0,81,0.00,,SCT250,0.00,VWS V14.01,2013-06-15 04:26:00,
2013-06-15 00:31:00,63.1,57.2,29.81,NNE,30,0.0,0.0,81,0.00,,SCT250,0.00,VWS V14.01,2013-06-15 04:31:00,
2013-06-15 00:36:00,63.2,57.3,29.81,NNE,30,0.0,1.0,81,0.00,,SCT250,0.00,VWS V14.01,2013-06-15 04:36:00,
2013-06-15 00:41:00,63.1,57.2,29.81,NNE,30,0.0,2.0,81,0.00,,SCT250,0.00,VWS V14.01,2013-06-15 04:41:00,
2013-06-15 00:46:00,63.1,57.2,29.81,NNE,28,0.0,0.0,81,0.00,,SCT250,0.00,VWS V14.01,2013-06-15 04:46:00,
2013-06-15 00:51:00,63.0,57.4,29.81,NNE,28,0.0,1.0,81,0.00,,SCT250,0.00,VWS V14.01,2013-06-15 04:51:00,
2013-06-15 00:56:00,63.1,57.5,29.81,NNE,28,0.0,1.0,82,0.00,,SCT250,0.00,VWS V14.01,2013-06-15 04:56:00,
2013-06-15 01:01:00,63.0,57.1,29.81,NNE,28,0.0,2.0,81,0.00,,SCT250,0.00,VWS V14.01,2013-06-15 05:01:00,
2013-06-15 01:06:00,63.0,57.4,29.81,NNE,22,0.0,3.0,82,0.00,,SCT250,0.00,VWS V14.01,2013-06-15 05:06:00,
2013-06-15 01:11:00,63.1,57.5,29.81,NE,52,0.0,4.0,82,0.00,,SCT250,0.00,VWS V14.01,2013-06-15 05:11:00,
2013-06-15 01:16:00,63.0,57.4,29.81,NNE,32,0.0,1.0,82,0.00,,SCT250,0.00,VWS V14.01,2013-06-15 05:16:00,
2013-06-15 01:21:00,63.0,57.4,29.81,NNE,24,0.0,1.0,81,0.00,,SCT250,0.00,VWS V14.01,2013-06-15 05:21:00,
2013-06-15 01:26:00,63.0,57.1,29.81,NNE,22,2.0,3.0,81,0.00,,SCT250,0.00,VWS V14.01,2013-06-15 05:26:00,
2013-06-15 01:31:00,63.0,57.4,29.81,NNE,25,0.0,3.0,82,0.00,,SCT250,0.00,VWS V14.01,2013-06-15 05:31:00,
2013-06-15 01:36:00,63.0,57.4,29.81,NNE,20,1.0,5.0,82,0.00,,SCT250,0.00,VWS V14.01,2013-06-15 05:36:00,
2013-06-15 01:41:00,63.0,57.4,29.81,NNE,32,2.0,5.0,82,0.00,,SCT250,0.00,VWS V14.01,2013-06-15 05:41:00,
2013-06-15 01:46:00,63.1,57.2,29.82,NNE,26,0.0,5.0,81,0.00,,SCT250,0.00,VWS V14.01,2013-06-15 05:46:00,
2013-06-15 01:51:00,63.1,57.5,29.81,NNE,21,0.0,5.0,82,0.00,,SCT250,0.00,VWS V14.01,2013-06-15 05:51:00,
2013-06-15 01:56:00,63.1,57.2,29.81,NNE,29,0.0,5.0,81,0.00,,SCT250,0.00,VWS V14.01,2013-06-15 05:56:00,
2013-06-15 02:01:00,63.0,57.1,29.82,NE,37,0.0,4.0,81,0.00,,FEW250,0.00,VWS V14.01,2013-06-15 06:01:00,
2013-06-15 02:06:00,63.0,57.4,29.81,North,11,0.0,4.0,82,0.00,,FEW250,0.00,VWS V14.01,2013-06-15 06:06:00,
2013-06-15 02:11:00,63.0,57.4,29.82,North,10,0.0,4.0,82,0.00,,FEW250,0.00,VWS V14.01,2013-06-15 06:11:00,
2013-06-15 02:16:00,62.9,57.3,29.82,NE,35,0.0,5.0,82,0.00,,FEW250,0.00,VWS V14.01,2013-06-15 06:16:00,
2013-06-15 02:21:00,63.0,57.4,29.82,NE,34,0.0,5.0,82,0.00,,FEW250,0.00,VWS V14.01,2013-06-15 06:21:00,
2013-06-15 02:26:00,63.0,57.4,29.82,North,0,0.0,5.0,82,0.00,,FEW250,0.00,VWS V14.01,2013-06-15 06:26:00,
2013-06-15 02:31:00,62.9,57.3,29.82,NNW,348,0.0,4.0,82,0.00,,FEW250,0.00,VWS V14.01,2013-06-15 06:31:00,
2013-06-15 02:36:00,62.9,57.3,29.82,NNW,348,0.0,4.0,82,0.00,,FEW250,0.00,VWS V14.01,2013-06-15 06:36:00,
2013-06-15 02:41:00,62.9,57.3,29.82,NNE,32,0.0,4.0,82,0.00,,FEW250,0.00,VWS V14.01,2013-06-15 06:41:00,
2013-06-15 02:46:00,62.9,57.3,29.82,NNE,30,0.0,0.0,82,0.00,,FEW250,0.00,VWS V14.01,2013-06-15 06:46:00,
2013-06-15 02:51:00,62.8,57.3,29.82,NNE,19,0.0,5.0,82,0.00,,FEW250,0.00,VWS V14.01,2013-06-15 06:51:00,
2013-06-15 02:56:00,62.9,57.3,29.82,NNE,25,1.0,5.0,82,0.00,,FEW250,0.00,VWS V14.01,2013-06-15 06:56:00,
2013-06-15 03:01:00,62.8,57.2,29.83,NNE,30,0.0,0.0,82,0.00,,FEW250,0.00,VWS V14.01,2013-06-15 07:01:00,
2013-06-15 03:06:00,62.8,57.2,29.83,NE,37,0.0,5.0,82,0.00,,FEW250,0.00,VWS V14.01,2013-06-15 07:06:00,
2013-06-15 03:11:00,62.8,57.2,29.83,NE,45,0.0,5.0,82,0.00,,FEW250,0.00,VWS V14.01,2013-06-15 07:11:00,
2013-06-15 03:16:00,62.7,57.1,29.84,NE,46,0.0,1.0,82,0.00,,FEW250,0.00,VWS V14.01,2013-06-15 07:16:00,
2013-06-15 03:21:00,62.6,57.0,29.84,NNW,337,0.0,1.0,82,0.00,,FEW250,0.00,VWS V14.01,2013-06-15 07:21:00,
2013-06-15 03:26:00,62.5,56.9,29.84,North,350,1.0,5.0,82,0.00,,FEW250,0.00,VWS V14.01,2013-06-15 07:26:00,
2013-06-15 03:31:00,62.6,57.0,29.84,NNE,14,1.0,2.0,82,0.00,,FEW250,0.00,VWS V14.01,2013-06-15 07:31:00,
2013-06-15 03:36:00,62.5,56.9,29.84,NNE,19,0.0,3.0,82,0.00,,FEW250,0.00,VWS V14.01,2013-06-15 07:36:00,
2013-06-15 03:41:00,62.5,56.9,29.84,NNE,19,0.0,3.0,82,0.00,,FEW250,0.00,VWS V14.01,2013-06-15 07:41:00,
2013-06-15 03:46:00,62.4,57.2,29.84,NNE,19,0.0,2.0,83,0.00,,FEW250,0.00,VWS V14.01,2013-06-15 07:46:00,
2013-06-15 03:51:00,62.3,57.1,29.83,NNE,19,0.0,3.0,83,0.00,,FEW250,0.00,VWS V14.01,2013-06-15 07:51:00,
2013-06-15 03:56:00,62.2,57.0,29.83,NNE,19,0.0,3.0,83,0.00,,FEW250,0.00,VWS V14.01,2013-06-15 07:56:00,
2013-06-15 04:01:00,62.1,56.9,29.83,NNE,24,0.0,0.0,83,0.00,,FEW250,0.00,VWS V14.01,2013-06-15 08:01:00,
2013-06-15 04:06:00,62.1,56.9,29.83,NNE,24,0.0,0.0,83,0.00,,FEW250,0.00,VWS V14.01,2013-06-15 08:06:00,
2013-06-15 04:11:00,62.1,56.9,29.83,NNE,24,0.0,0.0,83,0.00,,FEW250,0.00,VWS V14.01,2013-06-15 08:11:00,
2013-06-15 04:16:00,62.0,56.8,29.84,NNE,24,0.0,0.0,83,0.00,,FEW250,0.00,VWS V14.01,2013-06-15 08:16:00,
2013-06-15 04:21:00,61.8,56.6,29.84,NNE,24,0.0,0.0,83,0.00,,FEW250,0.00,VWS V14.01,2013-06-15 08:21:00,
2013-06-15 04:26:00,61.7,56.8,29.84,NNE,24,0.0,0.0,84,0.00,,FEW250,0.00,VWS V14.01,2013-06-15 08:26:00,
2013-06-15 04:31:00,61.6,56.7,29.84,NNE,24,0.0,0.0,84,0.00,,FEW250,0.00,VWS V14.01,2013-06-15 08:31:00,
2013-06-15 04:36:00,61.6,56.7,29.84,NNE,24,0.0,0.0,84,0.00,,FEW250,0.00,VWS V14.01,2013-06-15 08:36:00,
2013-06-15 04:41:00,61.5,56.6,29.84,NNE,24,0.0,0.0,84,0.00,,FEW250,0.00,VWS V14.01,2013-06-15 08:41:00,
2013-06-15 04:45:00,61.5,56.6,29.84,NNE,24,0.0,0.0,84,0.00,,FEW250,0.00,VWS V14.01,2013-06-15 08:45:00,
2013-06-15 04:50:00,61.4,56.5,29.84,NNE,24,0.0,0.0,84,0.00,,FEW250,0.00,VWS V14.01,2013-06-15 08:50:00,
2013-06-15 04:55:00,61.2,56.7,29.85,NNE,24,0.0,0.0,85,0.00,,FEW250,0.00,VWS V14.01,2013-06-15 08:55:00,
2013-06-15 05:00:00,61.2,56.6,29.84,NNE,24,0.0,0.0,85,0.00,,FEW250,0.00,VWS V14.01,2013-06-15 09:00:00,
2013-06-15 05:05:00,61.0,56.5,29.85,NNE,24,0.0,0.0,85,0.00,,FEW250,0.00,VWS V14.01,2013-06-15 09:05:00,
2013-06-15 05:10:00,60.9,56.7,29.85,NNE,24,0.0,0.0,86,0.00,,FEW250,0.00,VWS V14.01,2013-06-15 09:10:00,
2013-06-15 05:15:00,60.7,56.5,29.85,NNE,24,0.0,0.0,86,0.00,,FEW250,0.00,VWS V14.01,2013-06-15 09:15:00,
2013-06-15 05:20:00,60.6,56.4,29.86,NNE,24,0.0,0.0,86,0.00,,FEW250,0.00,VWS V14.01,2013-06-15 09:20:00,
2013-06-15 05:25:00,60.6,56.4,29.85,NNE,24,0.0,0.0,86,0.00,,FEW250,0.00,VWS V14.01,2013-06-15 09:25:00,
2013-06-15 05:30:00,60.6,56.4,29.86,NNE,24,0.0,0.0,86,0.00,,FEW250,0.00,VWS V14.01,2013-06-15 09:30:00,
2013-06-15 05:35:00,60.6,56.4,29.86,NNE,24,0.0,0.0,86,0.01,,FEW250,0.01,VWS V14.01,2013-06-15 09:35:00,
2013-06-15 05:40:00,60.4,55.9,29.86,NNE,24,0.0,0.0,85,0.01,,FEW250,0.01,VWS V14.01,2013-06-15 09:40:00,
2013-06-15 05:45:00,60.4,56.2,29.86,NNE,24,0.0,0.0,86,0.01,,FEW250,0.01,VWS V14.01,2013-06-15 09:45:00,
2013-06-15 05:50:00,60.5,56.3,29.86,NNE,24,0.0,1.0,86,0.01,,FEW250,0.01,VWS V14.01,2013-06-15 09:50:00,
2013-06-15 05:55:00,60.6,56.4,29.86,NNE,24,0.0,1.0,86,0.01,,FEW250,0.01,VWS V14.01,2013-06-15 09:55:00,
2013-06-15 06:00:00,60.6,56.4,29.86,NNE,24,0.0,0.0,86,0.01,,FEW250,0.01,VWS V14.01,2013-06-15 10:00:00,
2013-06-15 06:05:00,60.6,56.4,29.86,NNE,24,0.0,0.0,86,0.01,,FEW250,0.01,VWS V14.01,2013-06-15 10:05:00,
2013-06-15 06:10:00,60.7,56.5,29.86,NNE,24,0.0,0.0,86,0.01,,FEW250,0.01,VWS V14.01,2013-06-15 10:10:00,
2013-06-15 06:15:00,60.8,56.6,29.86,NNE,24,0.0,0.0,86,0.01,,FEW250,0.01,VWS V14.01,2013-06-15 10:15:00,
2013-06-15 06:20:00,60.8,56.6,29.86,NNE,24,0.0,4.0,86,0.01,,FEW250,0.01,VWS V14.01,2013-06-15 10:20:00,
2013-06-15 06:25:00,60.8,56.6,29.86,NNE,24,0.0,4.0,86,0.01,,FEW250,0.01,VWS V14.01,2013-06-15 10:25:00,
2013-06-15 06:30:00,60.8,56.6,29.86,NNE,24,0.0,0.0,86,0.01,,FEW250,0.01,VWS V14.01,2013-06-15 10:30:00,
2013-06-15 06:35:00,60.9,56.7,29.87,NNE,24,0.0,0.0,86,0.01,,FEW250,0.01,VWS V14.01,2013-06-15 10:35:00,
2013-06-15 06:40:00,61.0,56.8,29.87,NNE,24,0.0,1.0,86,0.01,,FEW250,0.01,VWS V14.01,2013-06-15 10:40:00,
2013-06-15 06:45:00,61.1,56.9,29.87,NNE,24,0.0,0.0,86,0.00,,FEW250,0.01,VWS V14.01,2013-06-15 10:45:00,
2013-06-15 06:50:00,61.2,57.0,29.87,NNE,24,0.0,0.0,86,0.00,,FEW250,0.01,VWS V14.01,2013-06-15 10:50:00,
2013-06-15 06:55:00,61.4,57.2,29.88,NNE,24,0.0,0.0,86,0.00,,FEW250,0.01,VWS V14.01,2013-06-15 10:55:00,
2013-06-15 07:00:00,61.4,57.2,29.88,NNE,24,0.0,0.0,86,0.00,,CLR,0.01,VWS V14.01,2013-06-15 11:00:00,
2013-06-15 07:05:00,61.5,57.3,29.88,NNE,24,0.0,0.0,86,0.00,,CLR,0.01,VWS V14.01,2013-06-15 11:05:00,
2013-06-15 07:10:00,61.6,57.4,29.88,NNE,24,0.0,0.0,86,0.00,,CLR,0.01,VWS V14.01,2013-06-15 11:10:00,
2013-06-15 07:15:00,61.7,57.2,29.88,NNE,24,0.0,0.0,85,0.00,,CLR,0.01,VWS V14.01,2013-06-15 11:15:00,
2013-06-15 07:20:00,61.9,57.3,29.88,NNE,24,0.0,1.0,85,0.00,,CLR,0.01,VWS V14.01,2013-06-15 11:20:00,
2013-06-15 07:25:00,62.0,57.1,29.89,NNE,24,0.0,1.0,84,0.00,,CLR,0.01,VWS V14.01,2013-06-15 11:25:00,
2013-06-15 07:30:00,62.1,57.2,29.89,NNE,29,0.0,0.0,84,0.00,,CLR,0.01,VWS V14.01,2013-06-15 11:30:00,
2013-06-15 07:35:00,62.3,57.4,29.89,NNE,30,0.0,3.0,84,0.00,,CLR,0.01,VWS V14.01,2013-06-15 11:35:00,
2013-06-15 07:40:00,62.4,57.4,29.90,NNE,30,2.0,5.0,84,0.00,,CLR,0.01,VWS V14.01,2013-06-15 11:40:00,
2013-06-15 07:45:00,62.3,57.1,29.89,NNE,30,0.0,1.0,83,0.00,,CLR,0.01,VWS V14.01,2013-06-15 11:45:00,
2013-06-15 07:50:00,62.7,57.4,29.89,NNE,28,0.0,6.0,83,0.00,,CLR,0.01,VWS V14.01,2013-06-15 11:50:00,
2013-06-15 07:55:00,62.9,57.3,29.89,NNE,22,2.0,6.0,82,0.00,,CLR,0.01,VWS V14.01,2013-06-15 11:55:00,
2013-06-15 08:00:00,63.1,57.5,29.89,NNE,24,0.0,0.0,82,0.00,,CLR,0.01,VWS V14.01,2013-06-15 12:00:00,
2013-06-15 08:05:00,63.4,57.8,29.89,NE,37,2.0,6.0,82,0.00,,CLR,0.01,VWS V14.01,2013-06-15 12:05:00,
2013-06-15 08:10:00,63.6,57.7,29.90,NNE,22,1.0,6.0,81,0.00,,CLR,0.01,VWS V14.01,2013-06-15 12:10:00,
2013-06-15 08:15:00,63.9,57.6,29.90,North,6,3.0,3.0,80,0.00,,CLR,0.01,VWS V14.01,2013-06-15 12:15:00,
2013-06-15 08:20:00,64.1,57.8,29.90,North,6,0.0,3.0,80,0.00,,CLR,0.01,VWS V14.01,2013-06-15 12:20:00,
2013-06-15 08:25:00,64.5,57.8,29.91,North,6,0.0,3.0,79,0.00,,CLR,0.01,VWS V14.01,2013-06-15 12:25:00,
2013-06-15 08:30:00,64.7,57.7,29.91,NNW,333,0.0,1.0,78,0.00,,CLR,0.01,VWS V14.01,2013-06-15 12:30:00,
2013-06-15 08:35:00,65.1,57.8,29.91,NNE,22,3.0,8.0,77,0.00,,CLR,0.00,VWS V14.01,2013-06-15 12:35:00,
2013-06-15 08:40:00,65.6,58.3,29.92,NE,35,0.0,8.0,77,0.00,,CLR,0.01,VWS V14.01,2013-06-15 12:40:00,
2013-06-15 08:45:00,66.1,58.3,29.91,NE,37,0.0,0.0,76,0.00,,CLR,0.01,VWS V14.01,2013-06-15 12:45:00,
2013-06-15 08:50:00,66.6,58.4,29.92,NE,53,4.0,6.0,75,0.00,,CLR,0.01,VWS V14.01,2013-06-15 12:50:00,
2013-06-15 08:55:00,67.1,58.5,29.92,NE,35,0.0,6.0,74,0.00,,CLR,0.01,VWS V14.01,2013-06-15 12:55:00,
2013-06-15 09:00:00,67.6,58.7,29.92,NE,36,0.0,1.0,73,0.00,,CLR,0.01,VWS V14.01,2013-06-15 13:00:00,
2013-06-15 09:05:00,68.1,58.7,29.93,NW,312,0.0,5.0,72,0.00,,CLR,0.01,VWS V14.01,2013-06-15 13:05:00,
2013-06-15 09:10:00,68.5,59.1,29.92,NE,36,0.0,5.0,72,0.00,,CLR,0.01,VWS V14.01,2013-06-15 13:10:00,
2013-06-15 09:15:00,68.7,58.1,29.92,NE,43,3.0,3.0,69,0.00,,CLR,0.01,VWS V14.01,2013-06-15 13:15:00,
2013-06-15 09:20:00,69.2,58.6,29.93,NE,35,0.0,6.0,70,0.00,,CLR,0.01,VWS V14.01,2013-06-15 13:20:00,
2013-06-15 09:25:00,69.6,58.6,29.93,NE,36,0.0,6.0,68,0.00,,CLR,0.01,VWS V14.01,2013-06-15 13:25:00,
2013-06-15 09:30:00,69.9,58.9,29.93,NW,315,0.0,1.0,68,0.00,,CLR,0.01,VWS V14.01,2013-06-15 13:30:00,
2013-06-15 09:35:00,70.2,59.2,29.92,NE,44,3.0,7.0,68,0.00,,CLR,0.01,VWS V14.01,2013-06-15 13:35:00,
2013-06-15 09:40:00,70.5,57.8,29.93,NNE,17,3.0,7.0,64,0.00,,CLR,0.01,VWS V14.01,2013-06-15 13:40:00,
2013-06-15 09:45:00,70.8,58.9,29.93,NE,36,5.0,6.0,66,0.00,,CLR,0.01,VWS V14.01,2013-06-15 13:45:00,
2013-06-15 09:50:00,71.3,59.4,29.93,NE,40,0.0,6.0,66,0.00,,CLR,0.01,VWS V14.01,2013-06-15 13:50:00,
2013-06-15 09:55:00,71.6,58.8,29.93,NNE,19,2.0,6.0,64,0.00,,CLR,0.01,VWS V14.01,2013-06-15 13:55:00,
2013-06-15 10:00:00,72.0,58.3,29.92,NNE,32,0.0,0.0,62,0.00,,CLR,0.01,VWS V14.01,2013-06-15 14:00:00,
2013-06-15 10:05:00,72.2,58.6,29.92,NNE,24,1.0,6.0,62,0.00,,CLR,0.01,VWS V14.01,2013-06-15 14:05:00,
2013-06-15 10:10:00,72.7,57.6,29.92,NNE,18,0.0,6.0,59,0.00,,CLR,0.01,VWS V14.01,2013-06-15 14:10:00,
2013-06-15 10:15:00,72.7,57.6,29.92,NNE,17,3.0,4.0,60,0.00,,CLR,0.01,VWS V14.01,2013-06-15 14:15:00,
2013-06-15 10:20:00,73.0,59.2,29.91,NNE,23,1.0,5.0,62,0.00,,CLR,0.01,VWS V14.01,2013-06-15 14:20:00,
2013-06-15 10:25:00,73.4,58.7,29.91,NNE,23,0.0,5.0,60,0.00,,CLR,0.01,VWS V14.01,2013-06-15 14:25:00,
2013-06-15 10:30:00,73.9,58.7,29.91,NNE,27,1.0,3.0,59,0.00,,CLR,0.01,VWS V14.01,2013-06-15 14:30:00,
2013-06-15 10:35:00,74.0,56.8,29.91,NE,45,0.0,5.0,55,0.00,,CLR,0.01,VWS V14.01,2013-06-15 14:35:00,
2013-06-15 10:40:00,74.1,56.9,29.91,NW,324,0.0,5.0,55,0.00,,CLR,0.01,VWS V14.01,2013-06-15 14:40:00,
2013-06-15 10:45:00,74.2,56.0,29.91,NNE,21,1.0,4.0,54,0.00,,CLR,0.00,VWS V14.01,2013-06-15 14:45:00,
2013-06-15 10:50:00,73.9,55.2,29.91,WNW,302,0.0,4.0,52,0.00,,CLR,0.01,VWS V14.01,2013-06-15 14:50:00,
2013-06-15 10:55:00,74.0,55.9,29.91,NNE,19,0.0,4.0,53,0.00,,CLR,0.01,VWS V14.01,2013-06-15 14:55:00,
2013-06-15 11:00:00,74.5,55.7,29.92,NE,38,6.0,6.0,52,0.00,,CLR,0.01,VWS V14.01,2013-06-15 15:00:00,
2013-06-15 11:05:00,74.8,55.5,29.92,NNE,28,0.0,6.0,51,0.00,,FEW250,0.01,VWS V14.01,2013-06-15 15:05:00,
2013-06-15 11:10:00,75.2,54.8,29.92,NE,35,0.0,6.0,49,0.00,,FEW250,0.01,VWS V14.01,2013-06-15 15:10:00,
2013-06-15 11:15:00,75.7,54.1,29.92,NNE,12,3.0,4.0,47,0.00,,FEW250,0.01,VWS V14.01,2013-06-15 15:15:00,
2013-06-15 11:20:00,75.6,54.5,29.92,NE,46,0.0,5.0,48,0.00,,FEW250,0.01,VWS V14.01,2013-06-15 15:20:00,
2013-06-15 11:25:00,75.4,56.0,29.92,NE,36,7.0,9.0,51,0.00,,FEW250,0.01,VWS V14.01,2013-06-15 15:25:00,
2013-06-15 11:30:00,75.7,55.8,29.92,NNE,12,0.0,0.0,50,0.00,,FEW250,0.01,VWS V14.01,2013-06-15 15:30:00,
2013-06-15 11:35:00,75.7,56.8,29.92,NNE,31,0.0,6.0,52,0.00,,FEW250,0.01,VWS V14.01,2013-06-15 15:35:00,
2013-06-15 11:40:00,75.9,57.0,29.91,NNE,31,1.0,6.0,52,0.00,,FEW250,0.01,VWS V14.01,2013-06-15 15:40:00,
2013-06-15 11:45:00,76.0,57.1,29.91,WNW,292,0.0,0.0,52,0.00,,FEW250,0.01,VWS V14.01,2013-06-15 15:45:00,
2013-06-15 11:50:00,75.8,55.3,29.92,WSW,251,0.0,4.0,49,0.00,,FEW250,0.01,VWS V14.01,2013-06-15 15:50:00,
2013-06-15 11:55:00,75.7,56.8,29.92,WSW,251,0.0,4.0,51,0.00,,FEW250,0.01,VWS V14.01,2013-06-15 15:55:00,
2013-06-15 12:00:00,76.1,56.1,29.92,NNE,21,3.0,3.0,50,0.00,,FEW250,0.01,VWS V14.01,2013-06-15 16:00:00,
2013-06-15 12:05:00,76.5,57.0,29.92,NE,41,1.0,6.0,51,0.00,,SCT250,0.01,VWS V14.01,2013-06-15 16:05:00,
2013-06-15 12:10:00,76.8,55.7,29.92,North,359,0.0,8.0,48,0.00,,SCT250,0.01,VWS V14.01,2013-06-15 16:10:00,
2013-06-15 12:15:00,76.9,55.7,29.91,NNW,336,0.0,1.0,48,0.00,,SCT250,0.01,VWS V14.01,2013-06-15 16:15:00,
2013-06-15 12:20:00,76.7,55.5,29.91,NNW,341,1.0,8.0,48,0.00,,SCT250,0.01,VWS V14.01,2013-06-15 16:20:00,
2013-06-15 12:25:00,77.1,55.9,29.91,NNE,27,3.0,8.0,48,0.00,,SCT250,0.01,VWS V14.01,2013-06-15 16:25:00,
2013-06-15 12:30:00,77.1,54.8,29.91,NNE,17,0.0,3.0,46,0.00,,SCT250,0.01,VWS V14.01,2013-06-15 16:30:00,
2013-06-15 12:35:00,77.2,54.8,29.90,NNE,27,2.0,10.0,46,0.00,,SCT250,0.01,VWS V14.01,2013-06-15 16:35:00,
2013-06-15 12:40:00,77.1,54.8,29.91,NE,34,6.0,11.0,46,0.00,,SCT250,0.01,VWS V14.01,2013-06-15 16:40:00,
2013-06-15 12:45:00,77.6,54.6,29.91,NE,40,0.0,7.0,45,0.00,,SCT250,0.01,VWS V14.01,2013-06-15 16:45:00,
2013-06-15 12:50:00,77.7,55.2,29.90,ENE,60,1.0,8.0,46,0.00,,SCT250,0.01,VWS V14.01,2013-06-15 16:50:00,
2013-06-15 12:55:00,77.5,54.5,29.90,NNE,30,5.0,9.0,45,0.00,,SCT250,0.01,VWS V14.01,2013-06-15 16:55:00,
2013-06-15 13:00:00,77.0,52.8,29.90,NNE,14,3.0,7.0,43,0.00,,SCT250,0.01,VWS V14.01,2013-06-15 17:00:00,
2013-06-15 13:05:00,76.8,53.3,29.89,North,7,1.0,10.0,44,0.00,,SCT250,0.01,VWS V14.01,2013-06-15 17:05:00,
2013-06-15 13:10:00,77.1,53.5,29.90,NNE,27,6.0,11.0,44,0.00,,SCT250,0.01,VWS V14.01,2013-06-15 17:10:00,
2013-06-15 13:15:00,77.7,54.7,29.90,NNW,348,2.0,9.0,45,0.00,,SCT250,0.01,VWS V14.01,2013-06-15 17:15:00,
2013-06-15 13:20:00,77.9,54.3,29.90,North,4,5.0,10.0,44,0.00,,SCT250,0.01,VWS V14.01,2013-06-15 17:20:00,
2013-06-15 13:25:00,78.1,54.4,29.90,NNE,31,1.0,10.0,44,0.00,,SCT250,0.01,VWS V14.01,2013-06-15 17:25:00,
2013-06-15 13:30:00,78.5,55.4,29.90,NE,43,0.0,0.0,45,0.00,,SCT250,0.01,VWS V14.01,2013-06-15 17:30:00,
2013-06-15 13:35:00,78.7,55.0,29.90,NE,45,5.0,13.0,44,0.00,,SCT250,0.01,VWS V14.01,2013-06-15 17:35:00,
2013-06-15 13:40:00,78.7,54.3,29.90,NNE,17,0.0,13.0,43,0.00,,SCT250,0.01,VWS V14.01,2013-06-15 17:40:00,
2013-06-15 13:45:00,79.0,54.7,29.90,NNE,23,2.0,6.0,43,0.00,,SCT250,0.01,VWS V14.01,2013-06-15 17:45:00,
2013-06-15 13:50:00,79.0,54.6,29.90,NNE,32,0.0,11.0,43,0.00,,SCT250,0.01,VWS V14.01,2013-06-15 17:50:00,
2013-06-15 13:55:00,78.9,54.5,29.90,NE,43,6.0,13.0,43,0.00,,SCT250,0.01,VWS V14.01,2013-06-15 17:55:00,
2013-06-15 14:00:00,78.9,54.5,29.90,NE,35,6.0,7.0,43,0.00,,SCT250,0.01,VWS V14.01,2013-06-15 18:00:00,
2013-06-15 14:05:00,78.8,55.0,29.90,NNE,31,0.0,7.0,44,0.00,,SCT250,0.01,VWS V14.01,2013-06-15 18:05:00,
2013-06-15 14:10:00,79.0,54.6,29.89,North,351,1.0,7.0,43,0.00,,SCT250,0.01,VWS V14.01,2013-06-15 18:10:00,
2013-06-15 14:15:00,79.3,53.6,29.89,NNE,32,0.0,1.0,41,0.00,,SCT250,0.01,VWS V14.01,2013-06-15 18:15:00,
2013-06-15 14:20:00,79.5,55.7,29.89,NE,45,4.0,8.0,44,0.00,,SCT250,0.01,VWS V14.01,2013-06-15 18:20:00,
2013-06-15 14:25:00,79.5,55.1,29.88,North,7,0.0,9.0,43,0.00,,SCT250,0.01,VWS V14.01,2013-06-15 18:25:00,
2013-06-15 14:30:00,79.7,55.9,29.88,NNE,30,5.0,5.0,44,0.00,,SCT250,0.01,VWS V14.01,2013-06-15 18:30:00,
2013-06-15 14:35:00,79.6,54.5,29.88,North,6,1.0,6.0,42,0.00,,SCT250,0.01,VWS V14.01,2013-06-15 18:35:00,
2013-06-15 14:40:00,79.1,54.7,29.87,West,267,0.0,8.0,43,0.00,,SCT250,0.01,VWS V14.01,2013-06-15 18:40:00,
2013-06-15 14:45:00,78.9,54.5,29.87,North,10,0.0,0.0,43,0.00,,SCT250,0.01,VWS V14.01,2013-06-15 18:45:00,
2013-06-15 14:50:00,79.1,54.1,29.87,NNE,20,0.0,5.0,42,0.00,,SCT250,0.01,VWS V14.01,2013-06-15 18:50:00,
2013-06-15 14:55:00,79.4,54.3,29.87,North,7,2.0,8.0,42,0.00,,SCT250,0.01,VWS V14.01,2013-06-15 18:55:00,
2013-06-15 15:00:00,79.6,55.2,29.88,NNE,31,0.0,0.0,43,0.00,,SCT250,0.01,VWS V14.01,2013-06-15 19:00:00,
2013-06-15 15:05:00,79.7,55.2,29.87,ENE,73,5.0,9.0,43,0.00,,SCT080,0.01,VWS V14.01,2013-06-15 19:05:00,
2013-06-15 15:10:00,79.7,55.2,29.87,NNE,33,6.0,9.0,43,0.00,,SCT080,0.01,VWS V14.01,2013-06-15 19:10:00,
2013-06-15 15:15:00,79.9,56.1,29.87,NNW,337,1.0,1.0,43,0.00,,SCT080,0.01,VWS V14.01,2013-06-15 19:15:00,
2013-06-15 15:20:00,80.2,55.7,29.86,NE,42,0.0,7.0,43,0.00,,SCT080,0.01,VWS V14.01,2013-06-15 19:20:00,
2013-06-15 15:25:00,80.5,56.6,29.87,NNE,28,0.0,7.0,43,0.00,,SCT080,0.01,VWS V14.01,2013-06-15 19:25:00,
2013-06-15 15:30:00,80.7,56.2,29.87,NNE,26,0.0,0.0,43,0.00,,SCT080,0.01,VWS V14.01,2013-06-15 19:30:00,
2013-06-15 15:35:00,80.5,56.0,29.86,NNE,21,2.0,5.0,43,0.00,,SCT080,0.01,VWS V14.01,2013-06-15 19:35:00,
2013-06-15 15:40:00,80.6,55.4,29.87,NNE,33,0.0,9.0,42,0.00,,SCT080,0.01,VWS V14.01,2013-06-15 19:40:00,
2013-06-15 15:45:00,80.4,55.9,29.86,NNE,16,4.0,5.0,43,0.00,,SCT080,0.01,VWS V14.01,2013-06-15 19:45:00,
2013-06-15 15:50:00,80.6,56.7,29.86,WNW,291,1.0,5.0,44,0.00,,SCT080,0.01,VWS V14.01,2013-06-15 19:50:00,
2013-06-15 15:55:00,80.7,56.2,29.86,NNW,328,0.0,9.0,43,0.00,,SCT080,0.01,VWS V14.01,2013-06-15 19:55:00,
2013-06-15 16:00:00,80.9,57.0,29.85,NNE,18,1.0,4.0,44,0.00,,SCT080,0.01,VWS V14.01,2013-06-15 20:00:00,
2013-06-15 16:05:00,81.1,57.8,29.85,NE,41,4.0,7.0,45,0.00,,BKN075,0.01,VWS V14.01,2013-06-15 20:05:00,
2013-06-15 16:10:00,80.9,57.0,29.85,NNE,32,0.0,8.0,44,0.00,,BKN075,0.01,VWS V14.01,2013-06-15 20:10:00,
2013-06-15 16:15:00,80.4,57.1,29.85,NW,321,0.0,0.0,44,0.00,,BKN075,0.01,VWS V14.01,2013-06-15 20:15:00,
2013-06-15 16:20:00,80.5,56.6,29.85,NNW,337,0.0,5.0,44,0.00,,BKN075,0.01,VWS V14.01,2013-06-15 20:20:00,
2013-06-15 16:25:00,80.2,57.0,29.86,NNW,346,0.0,7.0,45,0.00,,BKN075,0.01,VWS V14.01,2013-06-15 20:25:00,
2013-06-15 16:30:00,80.2,57.6,29.85,NE,35,1.0,2.0,46,0.00,,BKN075,0.01,VWS V14.01,2013-06-15 20:30:00,
2013-06-15 16:35:00,80.1,57.5,29.85,NE,36,1.0,8.0,46,0.00,,BKN075,0.01,VWS V14.01,2013-06-15 20:35:00,
2013-06-15 16:40:00,79.8,57.8,29.85,NNE,12,2.0,8.0,47,0.00,,BKN075,0.01,VWS V14.01,2013-06-15 20:40:00,
2013-06-15 16:45:00,79.3,57.3,29.86,NE,37,0.0,0.0,47,0.00,,BKN075,0.01,VWS V14.01,2013-06-15 20:45:00,
2013-06-15 16:50:00,79.0,57.7,29.85,NNE,24,1.0,7.0,48,0.00,,BKN075,0.01,VWS V14.01,2013-06-15 20:50:00,
2013-06-15 16:55:00,79.3,57.3,29.85,WNW,303,0.0,7.0,47,0.00,,BKN075,0.01,VWS V14.01,2013-06-15 20:55:00,
2013-06-15 17:00:00,79.1,56.6,29.85,NW,305,0.0,7.0,46,0.00,,BKN075,0.01,VWS V14.01,2013-06-15 21:00:00,
2013-06-15 17:05:00,78.8,56.9,29.86,WSW,251,1.0,4.0,47,0.00,,SCT075,0.01,VWS V14.01,2013-06-15 21:05:00,
2013-06-15 17:10:00,78.7,58.0,29.85,West,279,0.0,8.0,48,0.00,,SCT075,0.01,VWS V14.01,2013-06-15 21:10:00,
2013-06-15 17:14:00,78.5,56.6,29.85,West,268,0.0,8.0,47,0.00,,SCT075,0.01,VWS V14.01,2013-06-15 21:14:00,
2013-06-15 17:19:00,78.3,57.0,29.86,WNW,284,0.0,3.0,48,0.00,,SCT075,0.01,VWS V14.01,2013-06-15 21:19:00,
2013-06-15 17:24:00,78.2,57.5,29.86,SW,235,3.0,7.0,49,0.00,,SCT075,0.01,VWS V14.01,2013-06-15 21:24:00,
2013-06-15 17:30:00,78.1,58.0,29.86,West,262,4.0,7.0,50,0.00,,SCT075,0.01,VWS V14.01,2013-06-15 21:30:00,
2013-06-15 17:34:00,77.8,58.8,29.86,SW,236,0.0,7.0,52,0.00,,SCT075,0.01,VWS V14.01,2013-06-15 21:34:00,
2013-06-15 17:39:00,77.5,59.0,29.86,SW,233,4.0,7.0,53,0.00,,SCT075,0.01,VWS V14.01,2013-06-15 21:39:00,
2013-06-15 17:44:00,77.1,58.7,29.86,West,268,1.0,7.0,53,0.00,,SCT075,0.01,VWS V14.01,2013-06-15 21:44:00,
2013-06-15 17:49:00,76.7,58.8,29.86,SW,233,5.0,8.0,54,0.00,,SCT075,0.01,VWS V14.01,2013-06-15 21:49:00,
2013-06-15 17:54:00,76.4,59.1,29.86,WSW,245,5.0,8.0,55,0.00,,SCT075,0.01,VWS V14.01,2013-06-15 21:54:00,
2013-06-15 17:59:00,76.2,58.9,29.86,WSW,244,1.0,8.0,55,0.00,,SCT075,0.00,VWS V14.01,2013-06-15 21:59:00,
2013-06-15 18:05:00,76.4,59.1,29.86,West,259,5.0,11.0,55,0.00,,SCT300,0.01,VWS V14.01,2013-06-15 22:05:00,
2013-06-15 18:10:00,76.6,59.2,29.86,WSW,254,4.0,11.0,55,0.00,,SCT300,0.01,VWS V14.01,2013-06-15 22:10:00,
2013-06-15 18:15:00,76.3,59.0,29.86,SW,232,5.0,5.0,55,0.00,,SCT300,0.01,VWS V14.01,2013-06-15 22:15:00,
2013-06-15 18:20:00,76.2,59.4,29.87,WSW,245,2.0,6.0,56,0.00,,SCT300,0.01,VWS V14.01,2013-06-15 22:20:00,
2013-06-15 18:25:00,76.3,59.5,29.86,WSW,253,3.0,7.0,56,0.00,,SCT300,0.01,VWS V14.01,2013-06-15 22:25:00,
2013-06-15 18:30:00,76.4,59.6,29.87,WSW,245,3.0,8.0,56,0.00,,SCT300,0.01,VWS V14.01,2013-06-15 22:30:00,
2013-06-15 18:35:00,76.5,59.7,29.87,WNW,288,3.0,8.0,56,0.00,,SCT300,0.01,VWS V14.01,2013-06-15 22:35:00,
2013-06-15 18:40:00,76.5,59.7,29.87,SW,220,0.0,8.0,56,0.00,,SCT300,0.01,VWS V14.01,2013-06-15 22:40:00,
2013-06-15 18:44:00,76.1,59.3,29.86,WSW,243,3.0,8.0,56,0.00,,SCT300,0.01,VWS V14.01,2013-06-15 22:44:00,
2013-06-15 18:49:00,76.0,59.7,29.87,SW,227,4.0,6.0,57,0.00,,SCT300,0.01,VWS V14.01,2013-06-15 22:49:00,
2013-06-15 18:54:00,75.6,59.3,29.87,West,268,1.0,6.0,57,0.00,,SCT300,0.01,VWS V14.01,2013-06-15 22:54:00,
2013-06-15 19:00:00,75.5,59.1,29.87,WSW,257,4.0,9.0,57,0.00,,SCT300,0.01,VWS V14.01,2013-06-15 23:00:00,
2013-06-15 19:05:00,75.3,59.0,29.86,WSW,255,3.0,6.0,57,0.00,,SCT300,0.01,VWS V14.01,2013-06-15 23:05:00,
2013-06-15 19:10:00,75.1,58.8,29.86,WSW,244,6.0,7.0,57,0.00,,SCT300,0.01,VWS V14.01,2013-06-15 23:10:00,
2013-06-15 19:14:00,74.9,59.0,29.87,WSW,253,0.0,7.0,58,0.00,,SCT300,0.01,VWS V14.01,2013-06-15 23:14:00,
2013-06-15 19:19:00,74.6,59.0,29.86,West,267,2.0,6.0,58,0.00,,SCT300,0.01,VWS V14.01,2013-06-15 23:19:00,
2013-06-15 19:25:00,74.5,59.2,29.86,West,277,3.0,6.0,59,0.00,,SCT300,0.01,VWS V14.01,2013-06-15 23:25:00,
2013-06-15 19:30:00,74.3,59.5,29.86,West,270,0.0,6.0,60,0.00,,SCT300,0.01,VWS V14.01,2013-06-15 23:30:00,
2013-06-15 19:35:00,74.3,59.6,29.86,SW,223,0.0,5.0,60,0.00,,SCT300,0.01,VWS V14.01,2013-06-15 23:35:00,
2013-06-15 19:39:00,74.3,59.6,29.86,SW,221,0.0,5.0,60,0.00,,SCT300,0.01,VWS V14.01,2013-06-15 23:39:00,
2013-06-15 19:44:00,74.3,59.5,29.86,SW,224,0.0,5.0,60,0.00,,SCT300,0.01,VWS V14.01,2013-06-15 23:44:00,
2013-06-15 19:49:00,74.2,59.4,29.86,SW,224,0.0,0.0,60,0.00,,SCT300,0.01,VWS V14.01,2013-06-15 23:49:00,
2013-06-15 19:54:00,74.0,59.7,29.86,SW,224,0.0,1.0,61,0.00,,SCT300,0.01,VWS V14.01,2013-06-15 23:54:00,
2013-06-15 19:59:00,74.0,60.2,29.86,SW,223,0.0,1.0,62,0.00,,SCT300,0.01,VWS V14.01,2013-06-15 23:59:00,
2013-06-15 20:04:00,73.9,60.5,29.87,SW,224,0.0,0.0,63,0.00,,SCT300,0.01,VWS V14.01,2013-06-16 00:04:00,
2013-06-15 20:09:00,73.8,60.4,29.87,SW,223,0.0,0.0,63,0.00,,SCT300,0.01,VWS V14.01,2013-06-16 00:09:00,
2013-06-15 20:14:00,73.6,60.2,29.87,SW,223,0.0,1.0,63,0.00,,SCT300,0.01,VWS V14.01,2013-06-16 00:14:00,
2013-06-15 20:19:00,73.4,60.5,29.87,SW,223,0.0,0.0,64,0.00,,SCT300,0.01,VWS V14.01,2013-06-16 00:19:00,
2013-06-15 20:24:00,73.2,60.3,29.87,SW,224,0.0,0.0,64,0.00,,SCT300,0.01,VWS V14.01,2013-06-16 00:24:00,
2013-06-15 20:29:00,73.1,60.2,29.87,SW,224,0.0,0.0,64,0.00,,SCT300,0.01,VWS V14.01,2013-06-16 00:29:00,
2013-06-15 20:34:00,73.0,60.5,29.87,SW,224,0.0,0.0,65,0.00,,SCT300,0.01,VWS V14.01,2013-06-16 00:34:00,
2013-06-15 20:39:00,72.8,60.8,29.87,SW,224,0.0,0.0,66,0.00,,SCT300,0.01,VWS V14.01,2013-06-16 00:39:00,
2013-06-15 20:44:00,72.6,60.6,29.87,SW,224,0.0,0.0,66,0.00,,SCT300,0.01,VWS V14.01,2013-06-16 00:44:00,
2013-06-15 20:49:00,72.4,60.4,29.87,SW,224,0.0,0.0,66,0.00,,SCT300,0.01,VWS V14.01,2013-06-16 00:49:00,
2013-06-15 20:54:00,72.2,60.7,29.89,SW,223,0.0,0.0,67,0.00,,SCT300,0.01,VWS V14.01,2013-06-16 00:54:00,
2013-06-15 20:59:00,72.0,60.9,29.88,SW,223,0.0,0.0,68,0.00,,SCT300,0.01,VWS V14.01,2013-06-16 00:59:00,
2013-06-15 21:04:00,71.9,61.2,29.88,SW,223,0.0,0.0,69,0.00,,SCT270,0.01,VWS V14.01,2013-06-16 01:04:00,
2013-06-15 21:09:00,71.6,60.9,29.88,SW,224,0.0,0.0,69,0.00,,SCT270,0.01,VWS V14.01,2013-06-16 01:09:00,
2013-06-15 21:14:00,71.4,61.1,29.88,SW,223,0.0,0.0,70,0.00,,SCT270,0.01,VWS V14.01,2013-06-16 01:14:00,
2013-06-15 21:19:00,71.3,61.0,29.89,SW,224,0.0,0.0,70,0.00,,SCT270,0.01,VWS V14.01,2013-06-16 01:19:00,
2013-06-15 21:24:00,70.9,61.0,29.88,SW,223,0.0,0.0,71,0.00,,SCT270,0.01,VWS V14.01,2013-06-16 01:24:00,
2013-06-15 21:29:00,70.7,61.2,29.89,SW,223,0.0,0.0,72,0.00,,SCT270,0.01,VWS V14.01,2013-06-16 01:29:00,
2013-06-15 21:34:00,70.6,61.6,29.89,SW,224,0.0,0.0,72,0.00,,SCT270,0.01,VWS V14.01,2013-06-16 01:34:00,
2013-06-15 21:39:00,70.3,61.2,29.89,SW,223,0.0,0.0,73,0.00,,SCT270,0.01,VWS V14.01,2013-06-16 01:39:00,
2013-06-15 21:44:00,70.0,61.3,29.89,SW,224,0.0,0.0,74,0.00,,SCT270,0.01,VWS V14.01,2013-06-16 01:44:00,
2013-06-15 21:49:00,69.7,61.4,29.89,SW,224,0.0,0.0,75,0.00,,SCT270,0.01,VWS V14.01,2013-06-16 01:49:00,
2013-06-15 21:54:00,69.4,61.5,29.90,SW,223,0.0,0.0,76,0.00,,SCT270,0.01,VWS V14.01,2013-06-16 01:54:00,
2013-06-15 21:59:00,69.3,61.4,29.90,SW,224,0.0,0.0,76,0.00,,SCT270,0.01,VWS V14.01,2013-06-16 01:59:00,
2013-06-15 22:04:00,69.0,61.1,29.90,SW,224,0.0,0.0,76,0.00,,SCT270,0.01,VWS V14.01,2013-06-16 02:04:00,
2013-06-15 22:09:00,68.9,61.4,29.90,SW,224,0.0,0.0,77,0.00,,SCT270,0.01,VWS V14.01,2013-06-16 02:09:00,
2013-06-15 22:14:00,68.8,61.2,29.90,SW,223,0.0,0.0,77,0.00,,SCT270,0.01,VWS V14.01,2013-06-16 02:14:00,
2013-06-15 22:19:00,68.5,61.4,29.90,SW,223,0.0,0.0,78,0.00,,SCT270,0.01,VWS V14.01,2013-06-16 02:19:00,
2013-06-15 22:24:00,68.4,61.3,29.90,SW,224,0.0,0.0,78,0.00,,SCT270,0.01,VWS V14.01,2013-06-16 02:24:00,
2013-06-15 22:29:00,68.4,61.3,29.90,SW,223,0.0,0.0,78,0.00,,SCT270,0.01,VWS V14.01,2013-06-16 02:29:00,
2013-06-15 22:34:00,68.3,61.2,29.90,SW,224,0.0,0.0,78,0.00,,SCT270,0.01,VWS V14.01,2013-06-16 02:34:00,
2013-06-15 22:39:00,68.4,61.3,29.90,SW,224,0.0,0.0,78,0.00,,SCT270,0.01,VWS V14.01,2013-06-16 02:39:00,
2013-06-15 22:44:00,68.5,61.7,29.90,SW,224,0.0,0.0,79,0.00,,SCT270,0.01,VWS V14.01,2013-06-16 02:44:00,
2013-06-15 22:49:00,68.4,61.3,29.90,SW,224,0.0,0.0,78,0.00,,SCT270,0.01,VWS V14.01,2013-06-16 02:49:00,
2013-06-15 22:54:00,68.4,61.6,29.90,SW,224,0.0,0.0,79,0.00,,SCT270,0.01,VWS V14.01,2013-06-16 02:54:00,
2013-06-15 22:59:00,68.3,61.5,29.91,SW,224,0.0,0.0,79,0.00,,SCT270,0.01,VWS V14.01,2013-06-16 02:59:00,
2013-06-15 23:04:00,68.2,61.5,29.90,SW,224,0.0,0.0,79,0.00,,SCT250,0.01,VWS V14.01,2013-06-16 03:04:00,
2013-06-15 23:09:00,67.9,61.6,29.91,SW,223,0.0,0.0,80,0.00,,SCT250,0.01,VWS V14.01,2013-06-16 03:09:00,
2013-06-15 23:14:00,67.8,61.8,29.90,SW,224,0.0,0.0,81,0.00,,SCT250,0.01,VWS V14.01,2013-06-16 03:14:00,
2013-06-15 23:19:00,67.5,61.5,29.91,SW,223,0.0,0.0,81,0.00,,SCT250,0.01,VWS V14.01,2013-06-16 03:19:00,
2013-06-15 23:24:00,67.3,61.3,29.91,SW,224,0.0,0.0,81,0.00,,SCT250,0.01,VWS V14.01,2013-06-16 03:24:00,
2013-06-15 23:29:00,67.3,61.3,29.91,SW,223,0.0,0.0,81,0.00,,SCT250,0.01,VWS V14.01,2013-06-16 03:29:00,
2013-06-15 23:34:00,67.2,61.5,29.91,SW,224,0.0,0.0,82,0.00,,SCT250,0.01,VWS V14.01,2013-06-16 03:34:00,
2013-06-15 23:39:00,67.0,61.3,29.91,SW,224,0.0,0.0,82,0.00,,SCT250,0.01,VWS V14.01,2013-06-16 03:39:00,
2013-06-15 23:44:00,66.8,61.1,29.90,SW,224,0.0,0.0,82,0.00,,SCT250,0.01,VWS V14.01,2013-06-16 03:44:00,
2013-06-15 23:49:00,66.6,61.3,29.91,SW,224,0.0,0.0,83,0.00,,SCT250,0.01,VWS V14.01,2013-06-16 03:49:00,
2013-06-15 23:54:00,66.5,61.2,29.91,SW,224,0.0,0.0,83,0.00,,SCT250,0.01,VWS V14.01,2013-06-16 03:54:00,
2013-06-15 23:59:00,66.5,61.1,29.91,SW,223,0.0,0.0,83,0.00,,SCT250,0.01,VWS V14.01,2013-06-16 03:59:00,